THY9509 LTFD-LTBS

Flight info

Callsign THY9509
Flight time N/A
Altitude 27000
Route DUGLA G80 BERGO N618 IMR G80 OKESA N618 YOYYO W79 ERFES
Aircraft A320/M-SDE3FGHIRWY/LB1

Departure

Time N/A
Airport Balıkesir Koca Seyit Airport (LTFD)

Arrival

Time 2026-05-01 07:48
Airport Dalaman International Airport (LTBS)
Time Latitude Longitude Altitude Speed Heading
2026-05-01 07:23 37.85872 27.26073 27015 ft 465 kts 162°
2026-05-01 07:23 37.79947 27.29331 26991 ft 464 kts 162°
2026-05-01 07:24 37.76978 27.30955 26991 ft 464 kts 162°
2026-05-01 07:24 37.74007 27.32578 26993 ft 465 kts 162°
2026-05-01 07:24 37.71038 27.34200 26992 ft 465 kts 162°
2026-05-01 07:24 37.68073 27.35821 26986 ft 465 kts 162°
2026-05-01 07:25 37.65103 27.37442 26986 ft 465 kts 162°
2026-05-01 07:25 37.62130 27.39065 26991 ft 467 kts 162°
2026-05-01 07:25 37.59156 27.40727 27001 ft 468 kts 161°
2026-05-01 07:25 37.56192 27.42427 26979 ft 468 kts 161°
2026-05-01 07:26 37.53234 27.44146 26973 ft 468 kts 161°
2026-05-01 07:26 37.50271 27.45872 26970 ft 468 kts 161°
2026-05-01 07:26 37.47307 27.47556 26959 ft 467 kts 161°
2026-05-01 07:26 37.44320 27.49170 26966 ft 467 kts 163°
2026-05-01 07:27 37.41320 27.50727 26969 ft 466 kts 163°
2026-05-01 07:27 37.38318 27.52254 26973 ft 466 kts 163°
2026-05-01 07:27 37.35347 27.53765 26976 ft 466 kts 163°
2026-05-01 07:27 37.32418 27.55568 26982 ft 473 kts 154°
2026-05-01 07:28 37.29733 27.57994 26985 ft 479 kts 143°
2026-05-01 07:28 37.27383 27.60997 26985 ft 485 kts 133°
2026-05-01 07:28 37.25448 27.64486 26981 ft 490 kts 123°
2026-05-01 07:28 37.23756 27.68202 26979 ft 491 kts 122°
2026-05-01 07:29 37.22141 27.71975 26978 ft 491 kts 120°
2026-05-01 07:29 37.20572 27.75792 26980 ft 492 kts 120°
2026-05-01 07:29 37.19019 27.79619 26985 ft 492 kts 120°
2026-05-01 07:29 37.17457 27.83441 26985 ft 492 kts 120°
2026-05-01 07:30 37.15878 27.87246 26981 ft 492 kts 120°
2026-05-01 07:30 37.14278 27.91041 26984 ft 492 kts 121°
2026-05-01 07:30 37.12665 27.94824 26985 ft 492 kts 121°
2026-05-01 07:30 37.11043 27.98606 26986 ft 492 kts 121°
2026-05-01 07:31 37.09419 28.02387 26992 ft 492 kts 121°
2026-05-01 07:31 37.04302 28.13295 26912 ft 465 kts 127°
2026-05-01 07:32 37.00934 28.19721 26491 ft 425 kts 121°
2026-05-01 07:32 36.99777 28.23087 25952 ft 419 kts 109°
2026-05-01 07:33 36.99137 28.30214 24625 ft 412 kts 84°
2026-05-01 07:33 36.99660 28.33722 23844 ft 411 kts 71°
2026-05-01 07:33 37.01571 28.40402 22347 ft 400 kts 69°
2026-05-01 07:34 37.02497 28.43640 21748 ft 391 kts 69°
2026-05-01 07:34 37.04292 28.49979 20414 ft 382 kts 69°
2026-05-01 07:34 37.05171 28.53094 19750 ft 378 kts 69°
2026-05-01 07:35 37.06042 28.56176 19117 ft 374 kts 69°
2026-05-01 07:35 37.06616 28.58207 18696 ft 372 kts 70°
2026-05-01 07:35 37.07478 28.61243 18028 ft 369 kts 69°
2026-05-01 07:35 37.08426 28.64201 17345 ft 363 kts 62°
2026-05-01 07:36 37.09518 28.67045 16948 ft 360 kts 62°
2026-05-01 07:36 37.10589 28.69848 16340 ft 355 kts 63°
2026-05-01 07:36 37.11645 28.72616 15892 ft 346 kts 62°
2026-05-01 07:36 37.12674 28.75314 15364 ft 341 kts 62°
2026-05-01 07:37 37.14140 28.80957 14715 ft 339 kts 79°
2026-05-01 07:37 37.14541 28.83850 14427 ft 336 kts 79°
2026-05-01 07:37 37.14943 28.86724 14121 ft 334 kts 79°
2026-05-01 07:38 37.15344 28.89579 13823 ft 331 kts 79°
2026-05-01 07:38 37.15503 28.92425 13280 ft 325 kts 97°
2026-05-01 07:38 37.14021 28.97478 12389 ft 301 kts 131°
2026-05-01 07:39 37.12609 28.99357 11870 ft 293 kts 142°
2026-05-01 07:39 37.11091 29.01050 11345 ft 291 kts 142°
2026-05-01 07:39 37.07999 29.04179 10490 ft 275 kts 160°
2026-05-01 07:40 37.06222 29.04873 10012 ft 266 kts 179°
2026-05-01 07:40 37.04387 29.04778 9304 ft 263 kts 198°
2026-05-01 07:40 37.02755 29.03960 9063 ft 242 kts 214°
2026-05-01 07:40 37.01347 29.02917 9021 ft 231 kts 214°
2026-05-01 07:41 37.00003 29.01939 9010 ft 216 kts 214°
2026-05-01 07:41 36.98707 29.00996 8567 ft 216 kts 213°
2026-05-01 07:41 36.96090 28.99085 7396 ft 217 kts 213°
2026-05-01 07:42 36.94843 28.98174 6902 ft 205 kts 213°
2026-05-01 07:42 36.93670 28.97215 6372 ft 199 kts 222°
2026-05-01 07:42 36.92632 28.96104 5831 ft 194 kts 222°
2026-05-01 07:42 36.91616 28.95022 5301 ft 190 kts 222°
2026-05-01 07:43 36.90620 28.93965 4825 ft 186 kts 221°
2026-05-01 07:43 36.89645 28.92931 4340 ft 179 kts 222°
2026-05-01 07:43 36.87887 28.91066 3608 ft 153 kts 221°
2026-05-01 07:44 36.86310 28.89393 3476 ft 145 kts 221°
2026-05-01 07:44 36.84638 28.87981 3150 ft 145 kts 211°
2026-05-01 07:45 36.83764 28.87343 2910 ft 146 kts 210°
2026-05-01 07:45 36.82886 28.86702 2669 ft 147 kts 210°
2026-05-01 07:45 36.82002 28.86059 2449 ft 147 kts 211°
2026-05-01 07:45 36.81118 28.85392 2109 ft 151 kts 212°
2026-05-01 07:46 36.80238 28.84712 1843 ft 146 kts 212°
2026-05-01 07:46 36.79379 28.84053 1655 ft 144 kts 212°
2026-05-01 07:46 36.77632 28.82818 1339 ft 146 kts 208°
2026-05-01 07:47 36.76742 28.82210 1139 ft 146 kts 210°
2026-05-01 07:47 36.75858 28.81589 895 ft 145 kts 210°
2026-05-01 07:47 36.74993 28.80959 601 ft 144 kts 212°
2026-05-01 07:47 36.74160 28.80334 352 ft 139 kts 208°
2026-05-01 07:48 36.72344 28.79607 41 ft 137 kts 196°
2026-05-01 07:48 36.71653 28.79361 16 ft 59 kts 195°
2026-05-01 07:48 36.71343 28.79259 15 ft 44 kts 195°
2026-05-01 07:49 36.71049 28.79159 14 ft 44 kts 195°
2026-05-01 07:49 36.70616 28.78916 15 ft 25 kts 225°
2026-05-01 07:49 36.70588 28.78804 14 ft 7 kts 330°
2026-05-01 07:50 36.70636 28.78806 14 ft 7 kts 14°
2026-05-01 07:50 36.70758 28.78848 15 ft 11 kts 17°
2026-05-01 07:50 36.70837 28.78877 15 ft 13 kts 16°
2026-05-01 07:51 36.70929 28.78908 15 ft 15 kts 14°
2026-05-01 07:51 36.71032 28.78945 15 ft 16 kts 17°
2026-05-01 07:51 36.71149 28.78981 15 ft 18 kts 13°
2026-05-01 07:52 36.71335 28.78969 15 ft 14 kts 288°
2026-05-01 07:52 36.71377 28.78859 17 ft 15 kts 332°
2026-05-01 07:52 36.71482 28.78880 16 ft 17 kts 16°
2026-05-01 07:53 36.71655 28.78896 16 ft 12 kts 297°
2026-05-01 07:53 36.71665 28.78840 16 ft 1 kts 283°
2026-05-01 07:53 36.71666 28.78837 16 ft 0 kts 283°